Find Starlink 34978

NORAD ID: 65435 Int'l Des: 2025-194 Owner: SPXS Country: US Constellation: starlink operational
LEOCIRCULARRETROGRADESSO

当前视图

正在加载3D地球...

About Starlink 34978

Starlink 34978 (NORAD 65435) is a starlink constellation satellite (v2 mini) launched Sep 3, 2025 by SPXS of US. It operates in LEO, CIRCULAR, RETROGRADE, SSO orbit with a mass of 575.00 kg.

即将过境

Passes for default location (London). Set your location on the main map for personalized predictions.

高度历史

Loading altitude history...

两行轨道根数

1 65435U 25194B 26262.86722426 .00015054 00000-0 46763-3 0 9993
2 65435 97.2849 112.5630 0002275 88.9669 271.1834 15.33448314 58975
Epoch: Sep 19, 2026 • Age: 22 hours

当前状态

高度 492.7 km
远地点 / 近地点 N/A
速度 7.62 km/s
星下点 -68.67°S, 143.73°W
发射日期 Sep 3, 2025
运行时间 1 year
类型 internet

技术详情

分类 Payload
质量 575.00 kg
干质量 530.00 kg
长度 0.30 m
跨度 29.00 m
形状 ? Box + pan
制造商 SPXS
平台类型 Starlink V2MO
阶段状态 In Orbit
所有者/国家 SPXS/US

Most Searched